Погода в Арске

Хотите узнать прогноз погоды в Арске? Тогда Вам сюда: Погода в Арске

Поиск расширенной информации на нашем сайте:

Полезная информация:

Новости сайта



02.01.2020
Опубликован Долгосрочный прогноз погоды по городам России и ближнего зарубежья на январь 2020 года.
Карты: Прогноз на январь и февраль 2020 года, Сравнение прогнозируемой аномалии приземной температуры воздуха на январь 2020 года по разным моделям.




Погода в Арске - сегодня

Время (UTC), дата Ветер
(°,м/с) 
Видим.   Явления Облачность Т
(°С)
Тd
(°С)
f(%) Тe
(°С)
Pmin
(гПа)
dP
(гПа)
Po
(мм)
O2
(г/м3)
Тmin Tmax R s Состояние
почвы
18 24.02.21 320 (СЗ) 20000 м    ясно 
-22.8 -26.7 70 -26  1034.8  0.1  760  336           
21 24.02.21 280 (З) 20000 м    ясно 
-24.7 -27.7 76 -28  1034.4  -0.5  760  338           
00 25.02.21 210 (ЮЗ) 20000 м    ясно 
-27.5 -30.9 73 -28  1033.3  -1.3  759  342           
03 25.02.21 тихо ()   20000 м    ясно 
-27.3 -30.7 73 -27  1031.8  -1.5  758  341  -27.8      46  равномерный
сухой снег
100% 
06 25.02.21 160 (Ю) 10 км  [диам. изморози 2 мм]  8/0 средняя 
[As trans]
-23 -26.1 76 -26  1029.4  -2  756  334  -27.9         
09 25.02.21 170 (Ю) 20000 м    9/0 средняя 
[As trans]
-19.8 -24.2 68 -24  1026.5  -2.5  754  329           
12 25.02.21 120 (ЮВ) 4000 м  слаб. снег  10/0 средняя 
[As op]
-18.6 -22.1 74 -24  1023.1  -3.3  752  327           
15 25.02.21 130 (ЮВ) 4000 м  слаб. снег  10/0 средняя 
[As op]
-18.4 -21.3 78 -23  1020.8  -2.2  750  326    -18.1     
18 25.02.21 130 (ЮВ) 20000 м  в посл. час снег  5/0 средняя 
[Ac As]
-19.1 -22 78 -23  1019.4  -1.5  749  326           
21 25.02.21 110 (В) 4000 м  слаб. снег  10/0 средняя 
[As op]
-20.1 -23.1 77 -24  1019.1  -0.4  749  327           
00 26.02.21 110 (В) 4000 м  слаб. снег  9/0 средняя 
[As trans]
-19.9 -22.8 78 -23  1018.3  -0.8  748  327           
03 26.02.21 100 (В) 20000 м  {снег}  5/0 средняя 
[Ac trans]
-19.4 -22.3 78 -24  1017.7  -0.5  748  326  -20.2    0.8  46  равномерный
сухой снег
100% 
06 26.02.21 110 (В) 20000 м  {снег}  3/0 верхняя 
[Ci fib]
-17.9 -21.6 73 -22  1017.6  748  324           
09 26.02.21 130 (ЮВ) 20000 м    8/0 средняя 
[Ac trans]
-14.3 -18.7 69 -18  1016.4  -0.9  747  319           
12 26.02.21 130 (ЮВ) 20000 м    4/0 верхняя 
[Ci fib]
-13.8 -18.5 68 -18  1014.4  -1.9  746  318           
15 26.02.21 120 (ЮВ) 5{10}  20000 м  позёмок  10/0 средняя 
[Ac und]
-15.3 -19.2 72 -21  1011.4  -3.1  743  319    -13.4  0.0     
18 26.02.21 120 (ЮВ) 5{10}  2000 м  снег  10/10 600 м 
[Ns]
-15.7 -18.4 80 -21  1006.9  -4.4  740  318           
21 26.02.21 100 (В) 5{10}  1000 м  сильн. снег  10/0 средняя 
[As op]
-16.2 -18.7 81 -22  1002.8  -4.4  737  317           
00 27.02.21 100 (В) 4{10}  2000 м  снег  10/10 600 м 
[Ns]
-15.8 -18.1 82 -21  999.9  -2.8  735  316           
03 27.02.21 070 (В) 5{10}  4000 м  слаб. снег  10/0 средняя 
[As op]
-15.6 -18 82 -21  998.1  -1.7  734  315  -16.4    12  50  неравномерный
сухой снег
100% 
06 27.02.21 060 (СВ) 4{10}  10 км  слаб. снег  10/0 средняя 
[As op]
-14.4 -17.1 80 -19  998.2  0.3  734  313           
09 27.02.21 040 (СВ) 4000 м  слаб. снег  10/0 средняя 
[As op]
-12.9 -15.9 78 -17  999.2  1.1  735  312           
12 27.02.21 020 (С) 2000 м  снег  10/0 средняя 
[As op]
-13.1 -15.8 80 -18  1001.5  2.2  736  313           
15 27.02.21 360 (С) 4000 м  слаб. снег  10/0 средняя 
[As op]
-13.5 -16.1 81 -18  1003.6  738  314    -12.6     
18 27.02.21 360 (С) 4000 м  слаб. снег  10/0 средняя 
[As op]
-14.8 -17.7 79 -18  1004.1  0.4  738  316           
Время (UTC), дата Ветер
(°,м/с) 
Видим.   Явления Облачность Т
(°С)
Тd
(°С)
f(%) Тe
(°С)
Pmin
(гПа)
dP
(гПа)
Po
(мм)
O2
(г/м3)
Тmin Tmax R s Состояние
почвы

Для получения пояснительной информации подведите курсор к названию столбца.

ПОГОДА в Арске - архив

Всё, что Вы хотите узнать о погоде в Арске - удобно и подробно!

Выберите нужную дату (начиная с 1 января 2019* года) и нажмите кнопку "Найти".
Будут отображены архивные сводки погоды по пункту Арск, начиная с указанной даты.


Отображать данные в формате CSV (для использования в таблицах Excel)


Внимание! Наш архив погоды предназначен исключительно для личного некоммерческого использования в познавательных целях. Если Вам необходимы официальные справки о состоянии погоды (для производственных, юридических, коммерческих и т.п. целей), обращайтесь в органы Росгидромета.

*Примечание: данная дата относится к архиву по метеостанциям СССР (Россия, СНГ, Балтия).
Архив по метеостанциям Зарубежной Европы и Азии (кроме Китая) хранится 10 дней, по другим регионам земного шара (Китай, Африка, Америка, Австралия, Океания) - 1 день.

Арск - район местоположения метеостанции


Название, широта, долгота, высота метеостанции:
Арск 56.1°ш. 49.9°д. 153 м над ур. моря []

Дополнительная информация

В oтличие oт бoльшинства пoгoдных сайтoв мы публикуем пoдрoбную метеoинфoрмацию в детальнoм прoфессиoнальнoм фoрмате.

Характеристики температуры и влажнoсти вoздуха измеряются на высoте 2 м в тени вдали oт зданий и деревьев.
Скoрoсть ветра измеряется на высoте 10 м (на урoвне рoста челoвека скoрoсть ветра ниже в 1.5-2 раза). Если метеoстанция нахoдится в гoрoде или в лесу, тo скoрoсть ветра занижена на 2-4 м/с пo сравнению с oткрытым местoм. Скoрoсть ветра над акватoриями крупных рек и oзёр, а также на вершинах хoлмoв на 2-5 м/с выше, чем в oбычных услoвиях.
Атмoсфернoе давление в разных тoчках местнoсти мoжет значительнo oтличаться oт давления на метеoстанции, в зависимoсти oт услoвий рельефа (при пoдъёме на 10 м давление пoнижается примернo на 1 мм рт.ст.).